Location: Campavaglio
(41.1333°N, 9.2333°E)
Time: 07:42:50
(UTC+00:00)

AQUA - Pass Details

Date: 07 June 2020
Orbit: 702 x 703 km, 98.2° (Epoch: 08 July)

Event Time Altitude Azimuth Distance (km) Brightness Sun altitude
Rises 01:09:42 0° 15° (NNE) 3,099 8.6 -21.4°
Reaches altitude 10° 01:11:58 10° 18° (NNE) 2,176 7.5 -21.2°
Maximum altitude 01:16:44 70° 102° (ESE) 747 3.9 -20.8°
Enters shadow 01:18:18 41° 173° (S) 1,006 4.2 -20.6°
